(309136) = 2006 XQ38

Discovered at Kitt Peak on 2006-12-11 by Spacewatch.

Orbit

Orbit type: Main Belt

Note: WebGL enabled browser required.

epoch2024-03-31.0
epoch JD2460400.5
perihelion date2023-06-23.14282
perihelion JD2460118.64282
argument of perihelion (°)335.92660
ascending node (°)96.42236
inclination (°)15.18173
eccentricity0.1579495
perihelion distance (AU)2.1913195
Tisserand w.r.t. Jupiter3.3
ΔV w.r.t. Earth (km/sec)10.4
semimajor axis (AU)2.6023610
mean anomaly (°)66.17312
mean daily motion (°/day)0.23477540
aphelion distance (AU)3.013
period (years)4.2
P-vector [x]0.28907240
P-vector [y]0.91531868
P-vector [z]0.28040838
Q-vector [x]-0.92125639
Q-vector [y]0.18635802
Q-vector [z]0.34140497
absolute magnitude16.54
phase slope0.15
uncertainty0
referenceMPEC 2024-E179
observations used414
oppositions13
arc length (days)7710
first opposition used2003
last opposition used2024
residual rms (arc-secs)0.78
perturbers coarse indicatorM-v
perturbers precise indicator003Ek
first observation date used2003-02-01.0
last observation date used2024-03-12.0
computer nameMPCLINUX
JD of orbit computation2456966.744672
perihelion JD uncertainty (days)9.5928E-05
argument of perihelion uncertainty (°)2.8295E-05
ascending node uncertainty (°)1.8664E-05
inclination uncertainty (°)6.6733E-06
eccentricity uncertainty 1.4998E-07
perihelion distance uncertainty (AU)4.2344E-07
Minimum Orbit Intersection Distances (in AU)
for orbit epoch: 2460400.5, reference: E2024-GB3
Mercury1.88799
Venus1.47582
Earth1.21487
Mars0.63183
Jupiter2.25338
Saturn6.8177
Uranus15.851
Neptune27.4151

Observations

421 total observations over interval: 2003 02 01.30921 – 2024 03 12.274227
These data are available for download (format description).

Date (UT) J2000 RA J2000 Dec Magn Location Ref
2003 02 01.30921 10 09 33.49 +29 52 48.8 19.5   644 – Palomar Mountain/NEAT MPS 192640
2003 02 01.33000 10 09 32.40 +29 53 03.2 19.1   644 – Palomar Mountain/NEAT MPS 192640
2003 02 01.35131 10 09 31.33 +29 53 18.3 19.4   644 – Palomar Mountain/NEAT MPS 192640
2003 02 19.41789 09 52 47.88 +32 47 44.3 19.6   644 – Palomar Mountain/NEAT MPS 192640
2003 02 19.43907 09 52 46.62 +32 47 53.2 20.3   644 – Palomar Mountain/NEAT MPS 192640
2003 02 19.45991 09 52 45.41 +32 48 01.9 20.3   644 – Palomar Mountain/NEAT MPS 192640
2006 11 27.36332 08 10 17.65 +20 53 43.3 20.1 V G96 – Mt. Lemmon Survey MPS 192640
2006 11 27.36944 08 10 17.76 +20 53 45.9 20.1 V G96 – Mt. Lemmon Survey MPS 192640
2006 11 27.37587 08 10 17.83 +20 53 48.7 20.2 V G96 – Mt. Lemmon Survey MPS 192640
2006 11 27.38204 08 10 17.90 +20 53 51.5 20.1 V G96 – Mt. Lemmon Survey MPS 192640
2006 12 11.45976 08 10 18.33 +22 54 02.9 20.0 V 691 – Steward Observatory, Kitt Peak-Spacewatch MPS 192640
2006 12 11.47711 08 10 18.03 +22 54 13.4 20.3 V 691 – Steward Observatory, Kitt Peak-Spacewatch MPS 192640
2006 12 11.49446 08 10 17.73 +22 54 23.4 20.1 V 691 – Steward Observatory, Kitt Peak-Spacewatch MPS 192640
2006 12 13.34422 08 09 46.99 +23 12 51.5 19.6 R 699 – Lowell Observatory-LONEOS MPS 255240
2006 12 13.36981 08 09 46.56 +23 13 08.3   699 – Lowell Observatory-LONEOS MPS 255240
2006 12 13.39542 08 09 46.13 +23 13 23.0   699 – Lowell Observatory-LONEOS MPS 255240
2006 12 13.42102 08 09 45.51 +23 13 38.7   699 – Lowell Observatory-LONEOS MPS 255240
2006 12 15.33461 08 09 05.61 +23 33 21.7 19.9   704 – Lincoln Laboratory ETS, New Mexico MPS 192640
2006 12 15.34810 08 09 05.28 +23 33 29.2 19.5   704 – Lincoln Laboratory ETS, New Mexico MPS 192640
2006 12 15.36159 08 09 04.94 +23 33 37.8 20.0   704 – Lincoln Laboratory ETS, New Mexico MPS 192640
2006 12 15.37509 08 09 04.61 +23 33 48.0 20.3   704 – Lincoln Laboratory ETS, New Mexico MPS 192640
2006 12 15.38859 08 09 04.32 +23 33 56.3 20.1   704 – Lincoln Laboratory ETS, New Mexico MPS 192640
2006 12 21.34193 08 06 10.76 +24 38 32.4 19.7 V 691 – Steward Observatory, Kitt Peak-Spacewatch MPS 192640
2006 12 21.35935 08 06 10.10 +24 38 44.4 19.7 V 691 – Steward Observatory, Kitt Peak-Spacewatch MPS 192640
2006 12 21.38889 08 06 09.03 +24 39 02.3 19.4 V 691 – Steward Observatory, Kitt Peak-Spacewatch MPS 192640
2006 12 23.40898 08 04 53.94 +25 01 55.3 20.2 V 703 – Catalina Sky Survey MPS 192640
2006 12 23.41381 08 04 53.68 +25 01 58.4 20.0 V 703 – Catalina Sky Survey MPS 192640
2006 12 23.41866 08 04 53.54 +25 02 02.7 19.4 V 703 – Catalina Sky Survey MPS 192640
2006 12 23.42351 08 04 53.29 +25 02 05.1 19.9 V 703 – Catalina Sky Survey MPS 192640
2006 12 25.33745 08 03 35.36 +25 24 02.8 19.9 V 691 – Steward Observatory, Kitt Peak-Spacewatch MPS 192640
2006 12 25.35481 08 03 34.58 +25 24 14.8 20.0 V 691 – Steward Observatory, Kitt Peak-Spacewatch MPS 192640
2006 12 25.37249 08 03 33.79 +25 24 27.0 19.9 V 691 – Steward Observatory, Kitt Peak-Spacewatch MPS 192640
2007 01 08.33879 07 51 17.28 +28 06 40.0 19.2 V 703 – Catalina Sky Survey MPS 195585
2007 01 08.34581 07 51 16.81 +28 06 44.7 18.9 V 703 – Catalina Sky Survey MPS 195585
2007 01 08.35285 07 51 16.38 +28 06 50.6 18.6 V 703 – Catalina Sky Survey MPS 195585
2007 01 08.35985 07 51 15.98 +28 06 53.8 18.9 V 703 – Catalina Sky Survey MPS 195585
2007 01 09.15019 07 50 28.23 +28 15 47.4   691 – Steward Observatory, Kitt Peak-Spacewatch MPS 195585
2007 01 09.16753 07 50 27.14 +28 15 59.4   691 – Steward Observatory, Kitt Peak-Spacewatch MPS 195585
2007 01 09.18485 07 50 26.06 +28 16 11.4   691 – Steward Observatory, Kitt Peak-Spacewatch MPS 195585
2007 01 09.36411 07 50 14.71 +28 18 13.3 18.8 R 644 – Palomar Mountain/NEAT MPS 195585
2007 01 09.36530 07 50 14.67 +28 18 14.0 18.7 R 644 – Palomar Mountain/NEAT MPS 195585
2007 01 09.38457 07 50 13.41 +28 18 26.9 19.2 R 644 – Palomar Mountain/NEAT MPS 195585
2007 01 09.38577 07 50 13.32 +28 18 27.8 18.9 R 644 – Palomar Mountain/NEAT MPS 195585
2007 01 09.40497 07 50 12.08 +28 18 40.4 19.1 R 644 – Palomar Mountain/NEAT MPS 195585
2007 01 09.40616 07 50 11.98 +28 18 41.4 19.2 R 644 – Palomar Mountain/NEAT MPS 195585
2008 04 11.39043 15 33 32.86 -00 23 08.1 19.9 V G96 – Mt. Lemmon Survey MPS 245803
2008 04 11.39719 15 33 32.61 -00 23 06.6 20.8 V G96 – Mt. Lemmon Survey MPS 245803
2008 04 11.40391 15 33 32.36 -00 23 05.4 20.9 V G96 – Mt. Lemmon Survey MPS 245803
2008 04 11.41069 15 33 32.11 -00 23 03.8 21.0 V G96 – Mt. Lemmon Survey MPS 245803
2008 04 30.20436 15 18 50.47 +00 33 15.2 20.5 V 691 – Steward Observatory, Kitt Peak-Spacewatch MPS 248188
2008 04 30.23069 15 18 49.04 +00 33 18.3 20.4 V 691 – Steward Observatory, Kitt Peak-Spacewatch MPS 248188
2008 04 30.24583 15 18 48.17 +00 33 20.2 20.6 V 691 – Steward Observatory, Kitt Peak-Spacewatch MPS 248188
2008 05 03.20893 15 16 06.12 +00 38 48.5 20.6 V 691 – Steward Observatory, Kitt Peak-Spacewatch MPS 249009
2008 05 03.22658 15 16 05.12 +00 38 50.7 20.7 V 691 – Steward Observatory, Kitt Peak-Spacewatch MPS 249009
2008 05 03.24173 15 16 04.30 +00 38 51.8 20.4 V 691 – Steward Observatory, Kitt Peak-Spacewatch MPS 249009
2008 06 04.23861 14 48 52.34 +00 11 39.1 20.8 V G96 – Mt. Lemmon Survey MPS 250974
2008 06 04.24517 14 48 52.05 +00 11 37.3 21.1 V G96 – Mt. Lemmon Survey MPS 250974
2008 06 04.25172 14 48 51.80 +00 11 35.9 21.1 V G96 – Mt. Lemmon Survey MPS 250974
2008 06 04.25827 14 48 51.55 +00 11 34.6 21.5 V G96 – Mt. Lemmon Survey MPS 250974
2010 12 04.32449 05 32 40.14 +14 28 09.8 19.5   704 – Lincoln Laboratory ETS, New Mexico MPS 359046
2010 12 04.33766 05 32 39.29 +14 28 14.8 19.4   704 – Lincoln Laboratory ETS, New Mexico MPS 359046
2010 12 04.35110 05 32 38.42 +14 28 20.8 19.5   704 – Lincoln Laboratory ETS, New Mexico MPS 359046
2010 12 12.20053 05 24 18.76 +15 27 18.3 19.1   704 – Lincoln Laboratory ETS, New Mexico MPS 359046
2010 12 12.21363 05 24 17.93 +15 27 24.6 19.1   704 – Lincoln Laboratory ETS, New Mexico MPS 359046
2010 12 12.22669 05 24 16.98 +15 27 30.5 19.4   704 – Lincoln Laboratory ETS, New Mexico MPS 359046
2010 12 12.23978 05 24 16.11 +15 27 37.2 19.1   704 – Lincoln Laboratory ETS, New Mexico MPS 359046
2010 12 12.25305 05 24 15.19 +15 27 43.9 19.4   704 – Lincoln Laboratory ETS, New Mexico MPS 359046
2010 12 14.31846 05 21 59.61 +15 44 13.2 18.4 V G96 – Mt. Lemmon Survey MPS 359046
2010 12 14.32481 05 21 59.18 +15 44 16.3 18.4 V G96 – Mt. Lemmon Survey MPS 359046
2010 12 14.33119 05 21 58.75 +15 44 19.3 18.4 V G96 – Mt. Lemmon Survey MPS 359046
2010 12 14.33753 05 21 58.32 +15 44 22.3 18.4 V G96 – Mt. Lemmon Survey MPS 359046
2011 01 04.21186 05 01 33.52 +18 42 21.4 19.9   704 – Lincoln Laboratory ETS, New Mexico MPS 363375
2011 01 04.22509 05 01 32.83 +18 42 28.3 20.2   704 – Lincoln Laboratory ETS, New Mexico MPS 363375
2011 01 04.23867 05 01 32.20 +18 42 35.8 20.3   704 – Lincoln Laboratory ETS, New Mexico MPS 363375
2011 01 04.25208 05 01 31.51 +18 42 42.6 20.0   704 – Lincoln Laboratory ETS, New Mexico MPS 363375
2011 01 04.26548 05 01 30.91 +18 42 49.5 20.5   704 – Lincoln Laboratory ETS, New Mexico MPS 363375
2011 01 27.19321 04 53 00.42 +21 55 01.3 19.5 V G96 – Mt. Lemmon Survey MPS 367073
2011 01 27.20012 04 53 00.45 +21 55 04.4 19.6 V G96 – Mt. Lemmon Survey MPS 367073
2011 01 27.20707 04 53 00.45 +21 55 07.8 19.6 V G96 – Mt. Lemmon Survey MPS 367073
2011 01 27.21407 04 53 00.45 +21 55 11.2 19.9 V G96 – Mt. Lemmon Survey MPS 367073
2012 04 25.36265 14 09 54.701 +09 32 32.64 20.9 g F51 – Pan-STARRS 1, Haleakala MPS 422772
2012 04 25.37360 14 09 54.072 +09 32 33.61 20.9 g F51 – Pan-STARRS 1, Haleakala MPS 422772
2012 04 27.37850 14 08 04.508 +09 35 43.36 20.2 i F51 – Pan-STARRS 1, Haleakala MPS 423653
2012 04 27.39053 14 08 03.834 +09 35 44.29 20.4 i F51 – Pan-STARRS 1, Haleakala MPS 423653
2013 07 17.39241 19 08 06.200 -27 26 40.61 20.2 i F51 – Pan-STARRS 1, Haleakala MPS 472590
2013 07 17.40333 19 08 05.523 -27 26 44.16 20.1 i F51 – Pan-STARRS 1, Haleakala MPS 472590
2014 08 29.59944 03 30 08.132 -00 02 02.42 20.7 w F51 – Pan-STARRS 1, Haleakala MPS 531270
2014 08 29.60699 03 30 08.497 -00 02 03.31 20.7 w F51 – Pan-STARRS 1, Haleakala MPS 531270
